Weather History for KHEY - May, 2013

Change the Weather History Date:

Thursday, May 9, 2013

  Actual Average (KOZR) Record (KOZR)
Temperature  
Mean Temperature 73 °F -  
Max Temperature 86 °F 81 °F 91 °F (2002)
Min Temperature 60 °F 58 °F 53 °F (2005)
Cooling Degree Days 8    
Growing Degree Days 23 (Base 50)    
Moisture  
Dew Point 61 °F    
Average Humidity 76    
Maximum Humidity 100    
Minimum Humidity 37    
Precipitation  
Precipitation 0.01 in - - ()
Sea Level Pressure  
Sea Level Pressure 29.85 in    
Wind  
Wind Speed 1 mph (SW)    
Max Wind Speed 7 mph    
Max Gust Speed -    
Visibility 6 miles    
Events Fog    
Averages and records for this station are not official NWS values.
T = Trace of Precipitation, MM = Missing Value Source: NWS Daily Summary

Daily Weather History Graph

Daily Weather History Graph

Search for Another Location

Airport or City:

Trip Planner

Search our weather history database for the weather conditions in past years. The results will help you decide how hot, cold, wet, or windy it might be!

Date:

Astronomy

May. 09, 2013 Rise Set
Actual Time 5:50 AM CDT 7:27 PM CDT
Civil Twilight 5:24 AM CDT 7:54 PM CDT
Nautical Twilight 4:52 AM CDT 8:25 PM CDT
Astronomical Twilight 4:19 AM CDT 8:58 PM CDT
Moon 5:32 AM CDT (5/9) 7:22 PM CDT (5/9)
Length of Visible Light 14h 29m
Length of Day
13h 37m
Waning Crescent, 0% of the Moon is Illuminated
May 9
Waning Crescent
May 9
New
May 17
First Quarter
May 24
Full
May 31
Last Quarter

Hourly Weather History & Observations

Time (CDT) Temp. Heat Index Dew Point Humidity Pressure Visibility Wind Dir Wind Speed Gust Speed Precip Events Conditions
12:53 AM 63.0 °F - 62.1 °F 97% 29.76 in 6.0 mi Calm Calm - N/A   Clear
1:53 AM 62.1 °F - 61.0 °F 96% 29.75 in 3.0 mi Calm Calm - N/A   Clear
2:07 AM 62.6 °F - 60.8 °F 94% 30.07 in 2.5 mi Calm Calm - N/A   Clear
2:24 AM 62.6 °F - 60.8 °F 94% 30.07 in 1.8 mi Calm Calm - N/A   Partly Cloudy
2:32 AM 62.6 °F - 60.8 °F 94% 30.07 in 0.8 mi Calm Calm - N/A   Mist
2:53 AM 61.0 °F - 61.0 °F 100% 29.74 in 0.2 mi Calm Calm - N/A Fog Fog
3:53 AM 61.0 °F - 60.1 °F 97% 29.75 in 0.2 mi Calm Calm - N/A Fog Fog
4:53 AM 61.0 °F - 61.0 °F 100% 29.77 in 0.2 mi Calm Calm - N/A Fog Fog
5:53 AM 60.1 °F - 60.1 °F 100% 29.78 in 0.2 mi Calm Calm - N/A Fog Fog
6:53 AM 61.0 °F - 61.0 °F 100% 29.79 in 0.2 mi South 3.5 mph - 0.01 in Fog Fog
7:53 AM 63.0 °F - 63.0 °F 100% 29.81 in 0.2 mi Calm Calm - N/A Fog Fog
8:27 AM 64.4 °F - 64.4 °F 100% 30.14 in 1.5 mi Calm Calm - N/A   Overcast
8:34 AM 64.4 °F - 64.4 °F 100% 30.14 in 3.0 mi Calm Calm - N/A   Mostly Cloudy
8:49 AM 66.2 °F - 64.4 °F 94% 30.14 in 8.0 mi Calm Calm - N/A   Scattered Clouds
8:53 AM 66.9 °F - 64.0 °F 90% 29.81 in 9.0 mi Calm Calm - N/A   Partly Cloudy
9:53 AM 75.0 °F - 63.0 °F 66% 29.81 in 10.0 mi NW 3.5 mph - N/A   Clear
10:51 AM 78.8 °F - 64.4 °F 61% 30.14 in 10.0 mi Calm Calm - N/A   Partly Cloudy
10:53 AM 79.0 °F - 64.0 °F 60% 29.81 in 10.0 mi Calm Calm - N/A   Partly Cloudy
11:53 AM 81.0 °F 81.6 °F 60.1 °F 49% 29.81 in 10.0 mi Variable 3.5 mph - N/A   Partly Cloudy
12:53 PM 81.0 °F 81.1 °F 57.9 °F 45% 29.81 in 10.0 mi SW 6.9 mph - N/A   Mostly Cloudy
1:53 PM 84.0 °F 83.5 °F 57.9 °F 41% 29.80 in 10.0 mi SSW 6.9 mph - N/A   Mostly Cloudy
2:53 PM 82.0 °F 81.7 °F 57.0 °F 42% 29.77 in 10.0 mi Variable 4.6 mph - N/A   Mostly Cloudy
3:53 PM 86.0 °F 84.9 °F 57.0 °F 37% 29.75 in 10.0 mi Variable 4.6 mph - N/A   Partly Cloudy
4:53 PM 84.0 °F 83.5 °F 57.9 °F 41% 29.74 in 10.0 mi Calm Calm - N/A   Partly Cloudy
5:53 PM 82.9 °F 82.8 °F 59.0 °F 44% 29.74 in 10.0 mi SW 4.6 mph - N/A   Scattered Clouds
6:53 PM 81.0 °F 81.3 °F 59.0 °F 47% 29.74 in 10.0 mi Calm Calm - N/A   Clear
7:53 PM 75.9 °F - 62.1 °F 62% 29.75 in 10.0 mi South 3.5 mph - N/A   Clear
8:53 PM 73.0 °F - 62.1 °F 68% 29.77 in 10.0 mi Calm Calm - N/A   Clear
9:53 PM 71.1 °F - 61.0 °F 70% 29.79 in 10.0 mi SW 4.6 mph - N/A   Clear
10:53 PM 69.1 °F - 60.1 °F 73% 29.78 in 10.0 mi Calm Calm - N/A   Clear
11:53 PM 66.9 °F - 60.1 °F 79% 29.79 in 10.0 mi Calm Calm - N/A   Clear